SL-14 DEB, 47087

Orbit data source: Space-Track

SL-14 DEB, 47087 is space debris in LEO originally from a launch on Thu, 15 Aug 1991 UTC launched from the Plesetsk Missile And Space Complex (PKMTR). Debris objects in space refer to the collection of defunct objects orbiting the Earth. Examples of debris include non-operational satellites, rocket bodies, and fragments generated from explosions, collisions, or faulty payload assembly.

Loading next visibility...
Identifier
47087, 1991-056DM
Orbit
LEO
Last TLE update
1 day ago
Origin
Manufacturer
Unknown
Mission
Spacecraft
Bus & Motor
Unknown
Mass
Unknown
Launch date (UTC)
1991-08-15 (34 years ago)
Launch vehicle
Unknown
Launch site
Plesetsk Missile And Space Complex (PKMTR)
Object type
Payload
Rocket body
Debris
Shape & HBR
Unknown
Radar Cross Section
Small (<0.1 m²)

Expand to show TLE details & history

TLE from 1 day ago
0 SL-14 DEB
1 47087U 91056DM  25191.22141512  .00000149  00000-0  31423-3 0  9993
2 47087  82.6003  11.8197 0060951 173.3867 186.8079 13.24460467226310
Epoch: 2025-07-10T05:18Z
TLE epoch observation values (Epoch: 2025-07-10T05:18:50.266Z)
Latitude
0.00004°
Longitude
3.71946°
Altitude
1,216.231 km
Speed
7.224 km/s
True Right ascension
00h 47m 16s
True Declination
0° 00' 00"
Sunlit
Object was in daylight at epoch
Visualization orbit readout
Latitude
-15.53336°
Longitude
-175.05776°
Altitude
1,132.137 km
Speed
7.306 km/s
Apparent Right ascension
11h 38m 29s
Apparent Declination
-28° 27' 45"
Sunlit
Object is in daylight
Visualization observer readout
Local Sidereal Time
21:47:11
Azimuth
288.001° WNW
Elevation
-64.438°
Doppler factor
1
Orbital elements
Apogee altitude
1,210.939 km
Perigee altitude
1,118.987 km
Semi-major axis
7,543.1 km
Eccentricity
0.0061
Inclination
82.6003°
RAAN
11.8197°
Arg. of periapsis
173.3867°
True anomaly
Unknown
Mean anomaly
186.8079°
Eccentric anomaly
Unknown
Mean motion
3.31298 °/min
Orbital period
108.66 mins
BSTAR
0.00031423
Loading maneuver chart data...
Loading SW <> Apogee altitude chart data...
Loading historical data...
Loading historical data...
Loading historical data...
Loading historical data...
Loading historical data...
Loading historical data...
Loading historical data...

SL-14 DEB Visibility forecast

Observer location: undefined°, undefined°

Span
Click to sort rows by Start time (UTC) header in descending order
Start Az.
Max El. time (UTC)
Max El. Az.
Max El.
End time (UTC)
End Az.
13 mins2025-07-11 12:13:28.554Z166.893° S2025-07-11 12:20:28.554Z85.406° E39.916°2025-07-11 12:26:28.554Z17.72° NNE
10 mins2025-07-11 14:05:28.554Z241.99° WSW2025-07-11 14:10:28.554Z292.575° NW23.646°2025-07-11 14:15:28.554Z340.611° N
12 mins2025-07-11 23:37:28.554Z358.517° N2025-07-11 23:42:28.554Z50.997° ENE43.192°2025-07-11 23:49:28.554Z165.402° S
7 mins2025-07-12 01:28:28.554Z310.191° NW2025-07-12 01:31:28.554Z281.571° WNW17.025°2025-07-12 01:35:28.554Z243.811° WSW
|